Torna al catalogo

SCOUT A DEB

AttivoPO
NORAD 2386·DEBRIS·🇺🇸 United States

Lanciato Mar 26, 1966 da Vandenberg Space Force Base

Loading…

Prossimi Passaggi (prossime 24 ore)

TLE

AggiornatoSource: Space-Track

Epoca: Sep 14, 2026, 04:02 UTC

1 02386U 66024D   26257.16840187  .00000193  00000-0  15981-3 0  9994
2 02386  90.0403 331.6662 0129849  66.0022 295.4677 13.81656342334237

Traccia SCOUT A DEB in tempo reale con AllMySat

Download on the App Store